owner,sensor,date,latitude,longitude,vertical_datum,wind_speed,wind_to_direction,wind_speed_of_gust,qcFlag 
TABS,ioos:station:wmo:42047:1,2013-10-01T00:00:00Z,27.8966,-93.5973,4.0,3.810144354,138.1919349,4.76,'11111222,11111222,11111222' 
TABS,ioos:station:wmo:42047:1,2013-10-01T00:30:00Z,27.8966,-93.5973,4.0,4.140169079,128.7249773,5.16,'11111222,11111222,11111222' 
TABS,ioos:station:wmo:42047:1,2013-10-01T01:00:00Z,27.8966,-93.5973,4.0,4.67238697,137.7761126,6.0,'11111222,11111222,11111222' 
TABS,ioos:station:wmo:42047:1,2013-10-01T01:30:00Z,27.8966,-93.5973,4.0,5.334753977,136.9752451,6.54,'11111222,11111222,11111222' 
TABS,ioos:station:wmo:42047:1,2013-10-01T02:00:00Z,27.8966,-93.5973,4.0,5.314978833,142.0307682,6.33,'11111222,11111222,11111222' 
TABS,ioos:station:wmo:42047:1,2013-10-01T02:30:00Z,27.8966,-93.5973,4.0,6.255189845,150.6075983,7.7,'11111222,11111222,11111222' 
TABS,ioos:station:wmo:42047:1,2013-10-01T03:00:00Z,27.8966,-93.5973,4.0,6.820769751,147.1489756,8.47,'11111222,11111222,11111222' 
TABS,ioos:station:wmo:42047:1,2013-10-01T03:30:00Z,27.8966,-93.5973,4.0,6.845684772,150.7017953,8.1,'11111222,11111222,11111222' 
TABS,ioos:station:wmo:42047:1,2013-10-01T04:00:00Z,27.8966,-93.5973,4.0,6.872845117,146.6339225,8.15,'11111222,11111222,11111222' 
TABS,ioos:station:wmo:42047:1,2013-10-01T04:30:00Z,27.8966,-93.5973,4.0,6.085063681,146.2579923,7.09,'11111222,11111222,11111222' 
TABS,ioos:station:wmo:42047:1,2013-10-01T05:00:00Z,27.8966,-93.5973,4.0,6.016460754,156.8016742,7.0,'11111222,11111222,11111222' 
TABS,ioos:station:wmo:42047:1,2013-10-01T05:30:00Z,27.8966,-93.5973,4.0,5.97930598,153.692343,7.51,'11111222,11111222,11111222' 
TABS,ioos:station:wmo:42047:1,2013-10-01T06:00:00Z,27.8966,-93.5973,4.0,6.260622972,159.1335838,7.49,'11111222,11111222,11111222' 
TABS,ioos:station:wmo:42047:1,2013-10-01T06:30:00Z,27.8966,-93.5973,4.0,6.595286195,159.3120319,7.93,'11111222,11111222,11111222' 
TABS,ioos:station:wmo:42047:1,2013-10-01T07:00:00Z,27.8966,-93.5973,4.0,6.003615577,160.2372979,7.06,'11111222,11111222,11111222' 
TABS,ioos:station:wmo:42047:1,2013-10-01T07:30:00Z,27.8966,-93.5973,4.0,6.068838439,163.5361187,7.41,'11111222,11111222,11111222' 
TABS,ioos:station:wmo:42047:1,2013-10-01T08:00:00Z,27.8966,-93.5973,4.0,6.441863085,165.6188495,7.68,'11111222,11111222,11111222' 
TABS,ioos:station:wmo:42047:1,2013-10-01T08:30:00Z,27.8966,-93.5973,4.0,5.931820968,159.8851143,6.94,'11111222,11111222,11111222' 
TABS,ioos:station:wmo:42047:1,2013-10-01T09:00:00Z,27.8966,-93.5973,4.0,6.101811207,169.5190168,7.36,'11111222,11111222,11111222' 
TABS,ioos:station:wmo:42047:1,2013-10-01T09:30:00Z,27.8966,-93.5973,4.0,6.086123561,167.8594558,7.06,'11111222,11111222,11111222' 
TABS,ioos:station:wmo:42047:1,2013-10-01T10:00:00Z,27.8966,-93.5973,4.0,6.180914172,173.404114,7.34,'11111222,11111222,11111222' 
TABS,ioos:station:wmo:42047:1,2013-10-01T10:30:00Z,27.8966,-93.5973,4.0,5.397962579,184.6756939,6.37,'11111222,11111222,11111222' 
TABS,ioos:station:wmo:42047:1,2013-10-01T11:00:00Z,27.8966,-93.5973,4.0,5.56072837,180.927577,6.56,'11111222,11111222,11111222' 
TABS,ioos:station:wmo:42047:1,2013-10-01T11:30:00Z,27.8966,-93.5973,4.0,4.789404973,176.4089598,5.82,'11111222,11111222,11111222' 
TABS,ioos:station:wmo:42047:1,2013-10-01T12:00:00Z,27.8966,-93.5973,4.0,4.491414031,175.9146032,5.6,'11111222,11111222,11111222' 
TABS,ioos:station:wmo:42047:1,2013-10-01T12:30:00Z,27.8966,-93.5973,4.0,4.90112232,176.1394869,5.89,'11111222,11111222,11111222' 
TABS,ioos:station:wmo:42047:1,2013-10-01T13:00:00Z,27.8966,-93.5973,4.0,4.341347717,185.6845259,5.49,'11111222,11111222,11111222' 
TABS,ioos:station:wmo:42047:1,2013-10-01T13:30:00Z,27.8966,-93.5973,4.0,4.640905084,185.4405298,5.86,'11111222,11111222,11111222' 
TABS,ioos:station:wmo:42047:1,2013-10-01T14:00:00Z,27.8966,-93.5973,4.0,4.117001336,176.6582744,5.35,'11111222,11111222,11111222' 
TABS,ioos:station:wmo:42047:1,2013-10-01T14:30:00Z,27.8966,-93.5973,4.0,3.831305261,163.3153292,4.83,'11111222,11111222,11111222' 
TABS,ioos:station:wmo:42047:1,2013-10-01T15:00:00Z,27.8966,-93.5973,4.0,4.579312175,168.6657667,5.42,'11111222,11111222,11111222' 
TABS,ioos:station:wmo:42047:1,2013-10-01T15:30:00Z,27.8966,-93.5973,4.0,7.601907655,132.4413194,9.47,'11111222,11111222,11111222' 
TABS,ioos:station:wmo:42047:1,2013-10-01T16:00:00Z,27.8966,-93.5973,4.0,6.871768331,118.1316975,8.04,'11111222,11111222,11111222' 
TABS,ioos:station:wmo:42047:1,2013-10-01T16:30:00Z,27.8966,-93.5973,4.0,7.590480881,115.5188764,8.73,'11111222,11111222,11111222' 
TABS,ioos:station:wmo:42047:1,2013-10-01T17:00:00Z,27.8966,-93.5973,4.0,8.157266699,118.4818833,9.4,'11111222,11111222,11111222' 
TABS,ioos:station:wmo:42047:1,2013-10-01T17:30:00Z,27.8966,-93.5973,4.0,8.403005415,113.9420845,9.75,'11111222,11111222,11111222' 
TABS,ioos:station:wmo:42047:1,2013-10-01T18:00:00Z,27.8966,-93.5973,4.0,9.043771337,110.5193431,10.89,'11111222,11111222,11111222' 
TABS,ioos:station:wmo:42047:1,2013-10-01T18:30:00Z,27.8966,-93.5973,4.0,11.25908078,121.3044712,13.4,'11111222,11111222,11111222' 
TABS,ioos:station:wmo:42047:1,2013-10-01T19:00:00Z,27.8966,-93.5973,4.0,11.02390584,116.3329746,12.08,'11111222,11111222,11111222' 
TABS,ioos:station:wmo:42047:1,2013-10-01T19:30:00Z,27.8966,-93.5973,4.0,10.08007936,127.0975948,11.83,'11111222,11111222,11111222' 
TABS,ioos:station:wmo:42047:1,2013-10-01T20:00:00Z,27.8966,-93.5973,4.0,9.926656033,144.8853304,11.55,'11111222,11111222,11111222' 
TABS,ioos:station:wmo:42047:1,2013-10-01T20:30:00Z,27.8966,-93.5973,4.0,8.528786549,164.2855465,10.35,'11111222,11111222,11111222' 
TABS,ioos:station:wmo:42047:1,2013-10-01T21:00:00Z,27.8966,-93.5973,4.0,7.046474296,162.4910066,8.2,'11111222,11111222,11111222' 
TABS,ioos:station:wmo:42047:1,2013-10-01T21:30:00Z,27.8966,-93.5973,4.0,6.126377396,158.7545971,7.73,'11111222,11111222,11111222' 
TABS,ioos:station:wmo:42047:1,2013-10-01T22:00:00Z,27.8966,-93.5973,4.0,6.218842336,151.7868808,7.71,'11111222,11111222,11111222' 
TABS,ioos:station:wmo:42047:1,2013-10-01T22:30:00Z,27.8966,-93.5973,4.0,6.16477899,144.0412524,7.76,'11111222,11111222,11111222' 
TABS,ioos:station:wmo:42047:1,2013-10-01T23:00:00Z,27.8966,-93.5973,4.0,6.017682278,151.7317638,7.2,'11111222,11111222,11111222' 
TABS,ioos:station:wmo:42047:1,2013-10-01T23:30:00Z,27.8966,-93.5973,4.0,6.088365955,154.8241897,7.28,'11111222,11111222,11111222' 
TABS,ioos:station:wmo:42047:1,2013-10-02T00:00:00Z,27.8966,-93.5973,4.0,5.632051136,126.6260762,6.52,'11111222,11111222,11111222' 
TABS,ioos:station:wmo:42047:1,2013-10-02T00:30:00Z,27.8966,-93.5973,4.0,5.573831716,121.3519466,6.55,'11111222,11111222,11111222' 
TABS,ioos:station:wmo:42047:1,2013-10-02T01:00:00Z,27.8966,-93.5973,4.0,6.198645013,112.1793965,7.44,'11111222,11111222,11111222' 
TABS,ioos:station:wmo:42047:1,2013-10-02T01:30:00Z,27.8966,-93.5973,4.0,5.85,112.620233,7.09,'11111222,11111222,11111222' 
TABS,ioos:station:wmo:42047:1,2013-10-02T02:00:00Z,27.8966,-93.5973,4.0,6.568386408,109.0146081,7.75,'11111222,11111222,11111222' 
TABS,ioos:station:wmo:42047:1,2013-10-02T02:30:00Z,27.8966,-93.5973,4.0,7.232046737,106.054603,8.64,'11111222,11111222,11111222' 
TABS,ioos:station:wmo:42047:1,2013-10-02T03:00:00Z,27.8966,-93.5973,4.0,7.828971835,111.5843397,8.95,'11111222,11111222,11111222' 
TABS,ioos:station:wmo:42047:1,2013-10-02T03:30:00Z,27.8966,-93.5973,4.0,8.899578642,116.4214514,10.09,'11111222,11111222,11111222' 
TABS,ioos:station:wmo:42047:1,2013-10-02T04:00:00Z,27.8966,-93.5973,4.0,8.147404495,110.9268057,9.43,'11111222,11111222,11111222' 
TABS,ioos:station:wmo:42047:1,2013-10-02T04:30:00Z,27.8966,-93.5973,4.0,8.187166787,108.5902392,9.69,'11111222,11111222,11111222' 
TABS,ioos:station:wmo:42047:1,2013-10-02T05:00:00Z,27.8966,-93.5973,4.0,7.500566645,111.2627425,8.72,'11111222,11111222,11111222' 
TABS,ioos:station:wmo:42047:1,2013-10-02T05:30:00Z,27.8966,-93.5973,4.0,7.207065977,112.2594262,8.75,'11111222,11111222,11111222' 
TABS,ioos:station:wmo:42047:1,2013-10-02T06:00:00Z,27.8966,-93.5973,4.0,6.976539257,113.6626611,8.7,'11111222,11111222,11111222' 
TABS,ioos:station:wmo:42047:1,2013-10-02T06:30:00Z,27.8966,-93.5973,4.0,7.04716255,121.4800168,8.51,'11111222,11111222,11111222' 
TABS,ioos:station:wmo:42047:1,2013-10-02T07:00:00Z,27.8966,-93.5973,4.0,6.489075435,116.6443839,7.99,'11111222,11111222,11111222' 
TABS,ioos:station:wmo:42047:1,2013-10-02T07:30:00Z,27.8966,-93.5973,4.0,5.788134414,121.2187507,6.92,'11111222,11111222,11111222' 
TABS,ioos:station:wmo:42047:1,2013-10-02T08:00:00Z,27.8966,-93.5973,4.0,5.884122704,120.8806081,7.28,'11111222,11111222,11111222' 
TABS,ioos:station:wmo:42047:1,2013-10-02T08:30:00Z,27.8966,-93.5973,4.0,5.436543019,132.3165468,6.45,'11111222,11111222,11111222' 
TABS,ioos:station:wmo:42047:1,2013-10-02T09:00:00Z,27.8966,-93.5973,4.0,5.667027439,131.5666934,6.67,'11111222,11111222,11111222' 
TABS,ioos:station:wmo:42047:1,2013-10-02T09:30:00Z,27.8966,-93.5973,4.0,4.938552419,140.6700808,5.92,'11111222,11111222,11111222' 
TABS,ioos:station:wmo:42047:1,2013-10-02T10:00:00Z,27.8966,-93.5973,4.0,5.089322155,144.4364414,5.99,'11111222,11111222,11111222' 
TABS,ioos:station:wmo:42047:1,2013-10-02T10:30:00Z,27.8966,-93.5973,4.0,4.192374029,150.2553987,4.94,'11111222,11111222,11111222' 
TABS,ioos:station:wmo:42047:1,2013-10-02T11:00:00Z,27.8966,-93.5973,4.0,3.68708557,156.8424831,4.87,'11111222,11111222,11111222' 
TABS,ioos:station:wmo:42047:1,2013-10-02T11:30:00Z,27.8966,-93.5973,4.0,3.352924097,148.5383159,4.38,'11111222,11111222,11111222' 
TABS,ioos:station:wmo:42047:1,2013-10-02T12:00:00Z,27.8966,-93.5973,4.0,3.515920932,152.1961958,4.4,'11111222,11111222,11111222' 
TABS,ioos:station:wmo:42047:1,2013-10-02T12:30:00Z,27.8966,-93.5973,4.0,3.182766093,136.2733427,3.79,'11111222,11111222,11111222' 
TABS,ioos:station:wmo:42047:1,2013-10-02T13:00:00Z,27.8966,-93.5973,4.0,3.030659994,139.9526737,3.67,'11111222,11111222,11111222' 
TABS,ioos:station:wmo:42047:1,2013-10-02T13:30:00Z,27.8966,-93.5973,4.0,3.213860607,139.6697273,3.82,'11111222,11111222,11111222' 
TABS,ioos:station:wmo:42047:1,2013-10-02T14:00:00Z,27.8966,-93.5973,4.0,3.161724213,136.4099911,3.78,'11111222,11111222,11111222' 
TABS,ioos:station:wmo:42047:1,2013-10-02T14:30:00Z,27.8966,-93.5973,4.0,3.023524434,121.0616018,3.76,'11111222,11111222,11111222' 
TABS,ioos:station:wmo:42047:1,2013-10-02T15:00:00Z,27.8966,-93.5973,4.0,3.193195891,95.21108254,4.17,'11111222,11111222,11111222' 
TABS,ioos:station:wmo:42047:1,2013-10-02T15:30:00Z,27.8966,-93.5973,4.0,3.60733974,86.34399233,4.33,'11111222,11111222,11111222' 
TABS,ioos:station:wmo:42047:1,2013-10-02T16:00:00Z,27.8966,-93.5973,4.0,3.771909331,91.82353945,4.66,'11111222,11111222,11111222' 
TABS,ioos:station:wmo:42047:1,2013-10-02T16:30:00Z,27.8966,-93.5973,4.0,4.249235225,93.77860979,5.33,'11111222,11111222,11111222' 
TABS,ioos:station:wmo:42047:1,2013-10-02T17:00:00Z,27.8966,-93.5973,4.0,5.740426813,89.30088633,7.33,'11111222,11111222,11111222' 
TABS,ioos:station:wmo:42047:1,2013-10-02T17:30:00Z,27.8966,-93.5973,4.0,4.866918943,107.9513593,5.66,'11111222,11111222,11111222' 
TABS,ioos:station:wmo:42047:1,2013-10-02T18:00:00Z,27.8966,-93.5973,4.0,4.608871879,103.0415967,5.6,'11111222,11111222,11111222' 
TABS,ioos:station:wmo:42047:1,2013-10-02T18:30:00Z,27.8966,-93.5973,4.0,5.019083582,115.237941,5.94,'11111222,11111222,11111222' 
TABS,ioos:station:wmo:42047:1,2013-10-02T19:00:00Z,27.8966,-93.5973,4.0,4.709235607,129.5722312,5.68,'11111222,11111222,11111222' 
TABS,ioos:station:wmo:42047:1,2013-10-02T19:30:00Z,27.8966,-93.5973,4.0,4.308004178,126.7904334,5.22,'11111222,11111222,11111222' 
TABS,ioos:station:wmo:42047:1,2013-10-02T20:00:00Z,27.8966,-93.5973,4.0,4.087175064,111.9840003,5.01,'11111222,11111222,11111222' 
TABS,ioos:station:wmo:42047:1,2013-10-02T20:30:00Z,27.8966,-93.5973,4.0,4.759884452,101.7588622,5.86,'11111222,11111222,11111222' 
TABS,ioos:station:wmo:42047:1,2013-10-02T21:00:00Z,27.8966,-93.5973,4.0,4.45701694,99.94880297,5.54,'11111222,11111222,11111222' 
TABS,ioos:station:wmo:42047:1,2013-10-02T21:30:00Z,27.8966,-93.5973,4.0,4.915872252,97.83380909,5.97,'11111222,11111222,11111222' 
TABS,ioos:station:wmo:42047:1,2013-10-02T22:00:00Z,27.8966,-93.5973,4.0,5.038501761,101.9124778,6.57,'11111222,11111222,11111222' 
TABS,ioos:station:wmo:42047:1,2013-10-02T22:30:00Z,27.8966,-93.5973,4.0,5.241087673,98.00682254,6.38,'11111222,11111222,11111222' 
TABS,ioos:station:wmo:42047:1,2013-10-02T23:00:00Z,27.8966,-93.5973,4.0,4.799552062,113.8416447,5.66,'11111222,11111222,11111222' 
TABS,ioos:station:wmo:42047:1,2013-10-02T23:30:00Z,27.8966,-93.5973,4.0,5.22732245,113.3284874,6.38,'11111222,11111222,11111222' 
TABS,ioos:station:wmo:42047:1,2013-10-03T00:00:00Z,27.8966,-93.5973,4.0,5.29638556,115.2590634,6.65,'11111222,11111222,11111222' 
TABS,ioos:station:wmo:42047:1,2013-10-03T00:30:00Z,27.8966,-93.5973,4.0,5.243548417,118.2271043,6.29,'11111222,11111222,11111222' 
TABS,ioos:station:wmo:42047:1,2013-10-03T01:00:00Z,27.8966,-93.5973,4.0,5.126099882,108.1879071,6.01,'11111222,11111222,11111222' 
TABS,ioos:station:wmo:42047:1,2013-10-03T01:30:00Z,27.8966,-93.5973,4.0,5.874121211,118.1359558,6.79,'11111222,11111222,11111222' 
TABS,ioos:station:wmo:42047:1,2013-10-03T02:00:00Z,27.8966,-93.5973,4.0,5.796723212,117.5379278,6.96,'11111222,11111222,11111222' 
TABS,ioos:station:wmo:42047:1,2013-10-03T02:30:00Z,27.8966,-93.5973,4.0,5.914406141,113.834984,7.34,'11111222,11111222,11111222' 
TABS,ioos:station:wmo:42047:1,2013-10-03T03:00:00Z,27.8966,-93.5973,4.0,6.194295763,119.710814,7.19,'11111222,11111222,11111222' 
TABS,ioos:station:wmo:42047:1,2013-10-03T03:30:00Z,27.8966,-93.5973,4.0,6.35977987,115.9207604,7.52,'11111222,11111222,11111222' 
TABS,ioos:station:wmo:42047:1,2013-10-03T04:00:00Z,27.8966,-93.5973,4.0,5.768500672,126.1153403,7.17,'11111222,11111222,11111222' 
TABS,ioos:station:wmo:42047:1,2013-10-03T04:30:00Z,27.8966,-93.5973,4.0,6.639615953,131.2755458,7.74,'11111222,11111222,11111222' 
TABS,ioos:station:wmo:42047:1,2013-10-03T05:00:00Z,27.8966,-93.5973,4.0,6.501453684,130.8214727,7.86,'11111222,11111222,11111222' 
TABS,ioos:station:wmo:42047:1,2013-10-03T05:30:00Z,27.8966,-93.5973,4.0,5.750347816,136.3390846,7.14,'11111222,11111222,11111222' 
TABS,ioos:station:wmo:42047:1,2013-10-03T06:00:00Z,27.8966,-93.5973,4.0,5.509128788,135.9563802,6.74,'11111222,11111222,11111222' 
TABS,ioos:station:wmo:42047:1,2013-10-03T06:30:00Z,27.8966,-93.5973,4.0,4.681132342,135.3465087,5.89,'11111222,11111222,11111222' 
TABS,ioos:station:wmo:42047:1,2013-10-03T07:00:00Z,27.8966,-93.5973,4.0,5.508175742,140.0082759,6.77,'11111222,11111222,11111222' 
TABS,ioos:station:wmo:42047:1,2013-10-03T07:30:00Z,27.8966,-93.5973,4.0,4.946524032,144.9608262,6.22,'11111222,11111222,11111222' 
TABS,ioos:station:wmo:42047:1,2013-10-03T08:00:00Z,27.8966,-93.5973,4.0,4.777467949,140.9471648,5.74,'11111222,11111222,11111222' 
TABS,ioos:station:wmo:42047:1,2013-10-03T08:30:00Z,27.8966,-93.5973,4.0,4.858075751,144.805371,5.87,'11111222,11111222,11111222' 
TABS,ioos:station:wmo:42047:1,2013-10-03T09:00:00Z,27.8966,-93.5973,4.0,5.730008726,143.2303913,7.24,'11111222,11111222,11111222' 
TABS,ioos:station:wmo:42047:1,2013-10-03T09:30:00Z,27.8966,-93.5973,4.0,5.550900828,142.0981568,6.78,'11111222,11111222,11111222' 
TABS,ioos:station:wmo:42047:1,2013-10-03T10:00:00Z,27.8966,-93.5973,4.0,5.294686015,146.0100901,6.66,'11111222,11111222,11111222' 
TABS,ioos:station:wmo:42047:1,2013-10-03T10:30:00Z,27.8966,-93.5973,4.0,4.604628107,160.8570155,5.74,'11111222,11111222,11111222' 
TABS,ioos:station:wmo:42047:1,2013-10-03T11:00:00Z,27.8966,-93.5973,4.0,4.598575867,159.2400556,5.54,'11111222,11111222,11111222' 
TABS,ioos:station:wmo:42047:1,2013-10-03T11:30:00Z,27.8966,-93.5973,4.0,4.279836445,153.4950914,5.27,'11111222,11111222,11111222' 
TABS,ioos:station:wmo:42047:1,2013-10-03T12:00:00Z,27.8966,-93.5973,4.0,4.651505133,152.6088992,5.68,'11111222,11111222,11111222' 
TABS,ioos:station:wmo:42047:1,2013-10-03T12:30:00Z,27.8966,-93.5973,4.0,4.408684611,151.1097724,5.24,'11111222,11111222,11111222' 
TABS,ioos:station:wmo:42047:1,2013-10-03T13:00:00Z,27.8966,-93.5973,4.0,4.264106002,144.9312175,5.41,'11111222,11111222,11111222' 
TABS,ioos:station:wmo:42047:1,2013-10-03T13:30:00Z,27.8966,-93.5973,4.0,4.328001848,143.0774456,5.64,'11111222,11111222,11111222' 
TABS,ioos:station:wmo:42047:1,2013-10-03T14:00:00Z,27.8966,-93.5973,4.0,4.526300918,139.6598806,5.52,'11111222,11111222,11111222' 
TABS,ioos:station:wmo:42047:1,2013-10-03T14:30:00Z,27.8966,-93.5973,4.0,4.927331935,137.7970177,6.11,'11111222,11111222,11111222' 
TABS,ioos:station:wmo:42047:1,2013-10-03T15:00:00Z,27.8966,-93.5973,4.0,4.520011062,133.4763779,5.58,'11111222,11111222,11111222' 
TABS,ioos:station:wmo:42047:1,2013-10-03T15:30:00Z,27.8966,-93.5973,4.0,4.23001182,133.4676875,4.98,'11111222,11111222,11111222' 
TABS,ioos:station:wmo:42047:1,2013-10-03T16:00:00Z,27.8966,-93.5973,4.0,4.000199995,139.4611535,4.96,'11111222,11111222,11111222' 
TABS,ioos:station:wmo:42047:1,2013-10-03T16:30:00Z,27.8966,-93.5973,4.0,4.14229405,139.5040302,5.69,'11111222,11111222,11111222' 
TABS,ioos:station:wmo:42047:1,2013-10-03T17:00:00Z,27.8966,-93.5973,4.0,4.677232087,130.0568501,5.61,'11111222,11111222,11111222' 
TABS,ioos:station:wmo:42047:1,2013-10-03T17:30:00Z,27.8966,-93.5973,4.0,5.092582842,124.4393297,5.86,'11111222,11111222,11111222' 
TABS,ioos:station:wmo:42047:1,2013-10-03T18:00:00Z,27.8966,-93.5973,4.0,4.468937234,135.1816304,5.7,'11111222,11111222,11111222' 
TABS,ioos:station:wmo:42047:1,2013-10-03T18:30:00Z,27.8966,-93.5973,4.0,4.355869603,135.3723601,5.44,'11111222,11111222,11111222' 
TABS,ioos:station:wmo:42047:1,2013-10-03T19:00:00Z,27.8966,-93.5973,4.0,3.875783792,138.6614082,4.51,'11111222,11111222,11111222' 
TABS,ioos:station:wmo:42047:1,2013-10-03T19:30:00Z,27.8966,-93.5973,4.0,3.310740099,136.713777,3.96,'11111222,11111222,11111222' 
TABS,ioos:station:wmo:42047:1,2013-10-03T20:00:00Z,27.8966,-93.5973,4.0,2.896963928,112.3159573,3.27,'11111222,11111222,11111222' 
TABS,ioos:station:wmo:42047:1,2013-10-03T20:30:00Z,27.8966,-93.5973,4.0,2.998833106,122.4715373,3.99,'11111222,11111222,11111222' 
TABS,ioos:station:wmo:42047:1,2013-10-03T21:00:00Z,27.8966,-93.5973,4.0,3.201312231,122.4989909,4.28,'11111222,11111222,11111222' 
TABS,ioos:station:wmo:42047:1,2013-10-03T21:30:00Z,27.8966,-93.5973,4.0,3.318508701,120.8160546,4.03,'11111222,11111222,11111222' 
TABS,ioos:station:wmo:42047:1,2013-10-03T22:00:00Z,27.8966,-93.5973,4.0,3.409061454,114.9867957,4.38,'11111222,11111222,11111222' 
TABS,ioos:station:wmo:42047:1,2013-10-03T22:30:00Z,27.8966,-93.5973,4.0,3.15192005,110.6202453,4.04,'11111222,11111222,11111222' 
TABS,ioos:station:wmo:42047:1,2013-10-03T23:00:00Z,27.8966,-93.5973,4.0,3.719462327,95.86427922,4.8,'11111222,11111222,11111222' 
TABS,ioos:station:wmo:42047:1,2013-10-03T23:30:00Z,27.8966,-93.5973,4.0,3.212242208,92.14131728,3.91,'11111222,11111222,11111222' 
TABS,ioos:station:wmo:42047:1,2013-10-04T00:00:00Z,27.8966,-93.5973,4.0,3.123603688,87.24710012,4.14,'11111222,11111222,11111222' 
TABS,ioos:station:wmo:42047:1,2013-10-04T00:30:00Z,27.8966,-93.5973,4.0,3.789063209,78.27449449,4.61,'11111222,11111222,11111222' 
TABS,ioos:station:wmo:42047:1,2013-10-04T01:00:00Z,27.8966,-93.5973,4.0,3.453519943,82.010271,4.12,'11111222,11111222,11111222' 
TABS,ioos:station:wmo:42047:1,2013-10-04T01:30:00Z,27.8966,-93.5973,4.0,3.705954668,86.75114916,4.5,'11111222,11111222,11111222' 
TABS,ioos:station:wmo:42047:1,2013-10-04T02:00:00Z,27.8966,-93.5973,4.0,4.163075786,92.20301393,5.11,'11111222,11111222,11111222' 
TABS,ioos:station:wmo:42047:1,2013-10-04T02:30:00Z,27.8966,-93.5973,4.0,3.989498715,81.93042692,4.85,'11111222,11111222,11111222' 
TABS,ioos:station:wmo:42047:1,2013-10-04T03:00:00Z,27.8966,-93.5973,4.0,4.280525669,85.98072774,5.2,'11111222,11111222,11111222' 
TABS,ioos:station:wmo:42047:1,2013-10-04T03:30:00Z,27.8966,-93.5973,4.0,4.248870438,84.59761455,5.12,'11111222,11111222,11111222' 
TABS,ioos:station:wmo:42047:1,2013-10-04T04:00:00Z,27.8966,-93.5973,4.0,2.945980312,77.85051589,3.37,'11111222,11111222,11111222' 
TABS,ioos:station:wmo:42047:1,2013-10-04T04:30:00Z,27.8966,-93.5973,4.0,3.220388175,89.10996664,4.77,'11111222,11111222,11111222' 
TABS,ioos:station:wmo:42047:1,2013-10-04T05:00:00Z,27.8966,-93.5973,4.0,3.793006723,106.8587803,4.7,'11111222,11111222,11111222' 
TABS,ioos:station:wmo:42047:1,2013-10-04T05:30:00Z,27.8966,-93.5973,4.0,4.658003864,106.3343905,5.57,'11111222,11111222,11111222' 
TABS,ioos:station:wmo:42047:1,2013-10-04T06:00:00Z,27.8966,-93.5973,4.0,4.174446071,121.4819645,5.82,'11111222,11111222,11111222' 
TABS,ioos:station:wmo:42047:1,2013-10-04T06:30:00Z,27.8966,-93.5973,4.0,4.95558271,132.2195697,6.13,'11111222,11111222,11111222' 
TABS,ioos:station:wmo:42047:1,2013-10-04T07:00:00Z,27.8966,-93.5973,4.0,4.935838328,140.343359,5.93,'11111222,11111222,11111222' 
TABS,ioos:station:wmo:42047:1,2013-10-04T07:30:00Z,27.8966,-93.5973,4.0,4.994847345,140.6059733,5.92,'11111222,11111222,11111222' 
TABS,ioos:station:wmo:42047:1,2013-10-04T08:00:00Z,27.8966,-93.5973,4.0,6.04623023,148.0451262,6.92,'11111222,11111222,11111222' 
TABS,ioos:station:wmo:42047:1,2013-10-04T08:30:00Z,27.8966,-93.5973,4.0,6.471305896,145.4507287,7.6,'11111222,11111222,11111222' 
TABS,ioos:station:wmo:42047:1,2013-10-04T09:00:00Z,27.8966,-93.5973,4.0,6.276894136,148.8173637,7.47,'11111222,11111222,11111222' 
TABS,ioos:station:wmo:42047:1,2013-10-04T09:30:00Z,27.8966,-93.5973,4.0,6.685633852,147.5225212,7.85,'11111222,11111222,11111222' 
TABS,ioos:station:wmo:42047:1,2013-10-04T10:00:00Z,27.8966,-93.5973,4.0,5.563101653,160.6859068,6.55,'11111222,11111222,11111222' 
TABS,ioos:station:wmo:42047:1,2013-10-04T10:30:00Z,27.8966,-93.5973,4.0,6.336978775,155.5787612,7.58,'11111222,11111222,11111222' 
TABS,ioos:station:wmo:42047:1,2013-10-04T11:00:00Z,27.8966,-93.5973,4.0,6.239118527,149.0365263,7.11,'11111222,11111222,11111222' 
TABS,ioos:station:wmo:42047:1,2013-10-04T11:30:00Z,27.8966,-93.5973,4.0,6.198144884,148.5926287,7.45,'11111222,11111222,11111222' 
TABS,ioos:station:wmo:42047:1,2013-10-04T12:00:00Z,27.8966,-93.5973,4.0,6.423488149,146.5576107,7.4,'11111222,11111222,11111222' 
TABS,ioos:station:wmo:42047:1,2013-10-04T12:30:00Z,27.8966,-93.5973,4.0,6.14721075,144.267586,7.21,'11111222,11111222,11111222' 
TABS,ioos:station:wmo:42047:1,2013-10-04T13:00:00Z,27.8966,-93.5973,4.0,5.279109773,139.7639462,6.4,'11111222,11111222,11111222' 
TABS,ioos:station:wmo:42047:1,2013-10-04T13:30:00Z,27.8966,-93.5973,4.0,5.716861027,138.4749676,7.04,'11111222,11111222,11111222' 
TABS,ioos:station:wmo:42047:1,2013-10-04T14:00:00Z,27.8966,-93.5973,4.0,5.699298202,134.8581432,6.71,'11111222,11111222,11111222' 
TABS,ioos:station:wmo:42047:1,2013-10-04T14:30:00Z,27.8966,-93.5973,4.0,5.253608284,132.0685986,6.33,'11111222,11111222,11111222' 
TABS,ioos:station:wmo:42047:1,2013-10-04T15:00:00Z,27.8966,-93.5973,4.0,5.408816876,127.8660253,6.43,'11111222,11111222,11111222' 
TABS,ioos:station:wmo:42047:1,2013-10-04T15:30:00Z,27.8966,-93.5973,4.0,5.673244222,122.4018252,6.87,'11111222,11111222,11111222' 
TABS,ioos:station:wmo:42047:1,2013-10-04T16:00:00Z,27.8966,-93.5973,4.0,5.405783939,129.5209158,6.11,'11111222,11111222,11111222' 
TABS,ioos:station:wmo:42047:1,2013-10-04T16:30:00Z,27.8966,-93.5973,4.0,5.036000397,126.8474779,5.94,'11111222,11111222,11111222' 
TABS,ioos:station:wmo:42047:1,2013-10-04T17:00:00Z,27.8966,-93.5973,4.0,5.568213358,122.2347798,6.7,'11111222,11111222,11111222' 
TABS,ioos:station:wmo:42047:1,2013-10-04T17:30:00Z,27.8966,-93.5973,4.0,4.321122539,123.5800844,5.22,'11111222,11111222,11111222' 
TABS,ioos:station:wmo:42047:1,2013-10-04T18:00:00Z,27.8966,-93.5973,4.0,3.958850843,115.2708135,4.72,'11111222,11111222,11111222' 
TABS,ioos:station:wmo:42047:1,2013-10-04T18:30:00Z,27.8966,-93.5973,4.0,4.176601489,103.5708236,4.96,'11111222,11111222,11111222' 